Location: downtown San Diego
(32.7310°N, 117.1990°W)
Time: 04:02:12
(UTC-08:00)

Celestis-02/Orion 38 - Pass Details

Date: 12 July 2018
Orbit: 776 x 864 km, 108.0° (Epoch: 18 December)

Event Time Altitude Azimuth Distance (km) Brightness Sun altitude
Exits shadow 21:59:44 43° 165° (SSE) 1,084 4.8 -21.3°
Maximum altitude 22:01:26 81° 245° (WSW) 791 4.5 -21.6°
Drops below altitude 10° 22:06:31 10° 334° (NNW) 2,327 8.0 -22.3°
Sets 22:08:49 0° 335° (NNW) 3,260 9.0 -22.6°
